Location: Stigler
(35.2540°N, 95.1230°W)
Time: 01:31:46
(UTC-06:00)

Daily predictions for brighter satellites

Satellite Brightness Start Highest point End
(mag) Time Altitude Azimuth Time Altitude Azimuth Time Altitude Azimuth
COSMOS 2455 4.5 05:00:51 22° N 05:00:51 22° N 05:03:00 10° NNE
IDEFIX/ARIANE 42P 4.0 04:55:31 10° NNE 05:00:21 36° E 05:05:09 10° SSE
Cosmos 1844 Rocket 2.6 05:05:20 81° E 05:05:20 81° E 05:10:47 10° NNE
ISS -1.2 05:13:29 18° SE 05:13:29 18° SE 05:14:29 10° SE
Lacrosse 5 2.1 05:13:01 62° NNE 05:13:15 63° NE 05:18:14 10° SE
Cosmos 1844 3.8 05:10:36 12° SSW 05:15:58 76° ESE 05:21:41 10° NNE
Okean-O 3.5 05:12:08 10° NNE 05:16:26 49° E 05:20:42 10° S
COSMO-SKYMED 1 3.5 05:14:58 10° SE 05:19:05 45° ENE 05:21:27 23° NNE
Cosmos 1066 4.5 05:19:17 73° WSW 05:19:17 73° WSW 05:24:32 10° S
Cosmos 676 Rocket 4.3 05:20:41 52° N 05:20:41 52° N 05:24:41 10° NNE
Cosmos 1709 Rocket 3.9 05:15:04 10° S 05:21:21 90° NNW 05:27:43 10° N
Cosmos 1140 Rocket 3.3 05:25:42 41° SSW 05:27:29 80° WNW 05:32:39 10° NNE
Cosmos 1954 Rocket 3.8 05:30:08 57° SW 05:31:01 68° WNW 05:36:11 10° NNE
Meteor 1-21 Rocket 4.1 05:27:00 15° N 05:31:56 86° W 05:37:38 10° S
CZ-2C R/B 3.6 05:29:24 10° S 05:34:03 71° WSW 05:34:50 58° NW
DELTA 2 R/B (1) 3.8 05:33:00 48° NW 05:34:13 59° N 05:39:44 10° E
Shenzhou-11 Module 4.1 05:36:31 21° NE 05:36:31 21° NE 05:37:48 10° NE
NOAA 6 3.9 05:29:54 10° NNE 05:35:06 85° WNW 05:40:18 10° SSW
COSMOS 2406 3.6 05:30:53 18° N 05:35:09 62° ENE 05:40:44 10° SSE
PAYLOAD A 3.8 05:33:16 10° NNE 05:38:11 86° ESE 05:42:54 10° SSW
Atlas Centaur 2 3.5 05:38:42 13° SSW 05:38:42 13° SSW 05:40:13 10° S
Nadezhda 1 Rocket 4.4 05:40:35 39° W 05:40:35 39° W 05:46:20 10° SSW
Meteor 2-13 Rocket 4.3 05:35:33 10° SSW 05:41:37 63° W 05:47:40 10° N
ATLAS 2A CENTAUR R/B 4.3 05:39:18 26° WSW 05:43:17 54° S 06:14:03 10° ESE
SL-14 R/B 3.6 05:40:49 20° N 05:43:24 63° E 05:47:12 10° SSE
Tiangong 2 1.6 05:43:44 56° SE 05:43:44 56° SE 05:46:50 10° ENE
CZ-4C R/B 3.3 05:40:41 14° NNW 05:47:12 64° ENE 05:55:13 10° SE
SKYMED 3 4.4 05:44:43 10° S 05:49:02 77° W 05:51:49 22° NNW
USA 229 DEB 4.5 05:44:35 10° S 05:51:05 53° ESE 05:57:41 10° NE
USA 229 4.5 05:44:43 10° S 05:51:11 52° ESE 05:57:47 10° NE
Radarsat Rocket 4.0 05:45:07 10° NNE 05:51:48 87° WNW 05:57:47 10° SSW
Cosmos 1626 3.9 05:50:59 10° NNE 05:54:23 33° E 05:57:45 10° SE
Milstar 3 3.6 05:52:04 16° WSW 05:57:47 44° S 06:04:03 10° E
Cosmos 1315 Rocket 2.7 05:56:54 11° N 06:00:47 85° E 06:04:47 10° S
EO 1 Del DPAF 3.1 05:58:25 10° S 06:02:13 82° WSW 06:05:37 13° NNW
MTI 3.9 06:00:27 10° S 06:03:35 48° W 06:03:49 46° W
COSMOS 2441 4.3 06:02:12 10° NNE 06:07:00 88° WNW 06:11:50 10° SSW
Cosmos-2242 2.9 06:02:41 10° S 06:07:01 87° W 06:11:20 10° N
SKYMED 2 3.8 06:02:57 10° S 06:07:06 46° W 06:10:04 18° NNW
Cosmos 2074 Rocket 4.0 06:01:24 10° S 06:07:38 88° E 06:13:52 10° N
Feng Yun 1-1 Rocket 4.5 06:04:47 10° N 06:09:51 42° WNW 06:14:53 10° SW
Cosmos 1408 Rocket 3.9 06:07:02 10° N 06:11:23 67° E 06:15:45 10° SSE
Landsat 4 4.4 06:14:01 10° SSW 06:17:28 32° W 06:19:15 22° NW
SJ-12 3.8 06:14:13 10° N 06:18:20 72° WNW 06:22:25 10° SSW
Cosmos 2181 Rocket 4.2 06:12:41 10° NNW 06:18:39 47° W 06:24:30 10° SSW
Cosmos 371 Rocket 3.3 06:16:44 10° NNW 06:21:39 89° E 06:26:31 10° SSE
Cosmos 1741 Rocket 4.1 06:16:50 10° SSW 06:21:58 54° WNW 06:27:07 10° N
ATLAS CENTAUR R/B 3.1 06:19:16 10° N 06:22:54 30° NE 06:26:44 10° ESE
PSLV R/B 3.9 06:27:20 21° W 06:28:54 36° SSW 06:31:46 10° SE
Cosmos 2278 Rocket 2.3 06:24:03 10° SW 06:29:35 56° WNW 06:35:09 10° NNE
GPS 2-04 Rocket1 2.8 06:27:47 16° W 06:31:11 88° S 06:35:29 10° E
Cosmos 1328 4.1 06:29:11 10° NNW 06:33:01 46° W 06:36:50 10° SSW
Cosmos 1400 Rocket 4.4 06:32:37 16° W 06:33:06 16° W 06:35:41 10° SW
Ariane Rocket 3.7 06:29:14 10° NNE 06:34:16 58° ESE 06:39:17 10° S
Cosmos 1743 Rocket 4.2 06:31:58 10° N 06:36:15 59° E 06:40:31 10° SSE
Cosmos 2151 3.7 06:33:35 10° N 06:37:51 57° E 06:42:03 10° SSE
Cosmos 2058 3.5 06:33:50 10° N 06:38:01 61° E 06:42:09 10° SSE
CZ-2C R/B 3.0 06:34:19 10° N 06:38:20 30° WNW 06:42:24 10° SW
SMAP 3.2 06:34:12 10° NNE 06:38:52 79° ESE 06:43:31 10° S
IDEFIX/ARIANE 42P 3.6 06:35:32 10° NNW 06:39:43 24° WNW 06:43:52 10° WSW
Cosmos 2221 4.1 06:41:24 10° SSE 06:45:20 39° E 06:49:20 10° NNE
ORS 1 (USA 231) 4.4 06:43:45 10° WSW 06:46:21 67° SSE 06:48:58 10° ENE
NOSS 3-1 (C) 3.8 06:40:59 10° SSW 06:46:27 65° ESE 06:52:32 10° NE
CSL-04 Rocket 3.6 06:43:01 10° NNE 06:48:25 86° WNW 06:53:42 10° SSW
Cosmos 1844 Rocket 4.3 06:47:14 10° W 06:49:45 13° NW 06:52:16 10° NNW
Okean-O 4.3 06:50:19 10° NW 06:52:27 13° WNW 06:54:35 10° W
Cosmos 1766 Rocket 4.4 06:50:48 10° NNW 06:54:38 30° W 06:58:28 10° SSW
COSMO-SKYMED 1 4.4 06:53:33 10° WSW 06:55:27 13° W 06:57:20 10° WNW
Cosmos 2154 Rocket 4.0 06:49:27 10° SSW 06:55:37 73° W 07:01:51 10° N
Lacrosse 5 3.5 06:52:35 10° W 06:55:43 17° WSW 06:58:51 10° SSW
Cosmos 1908 3.2 06:54:37 10° SSW 06:58:30 65° W 07:02:24 10° N
Thor Agena Rocket 3.6 06:53:41 10° S 06:58:50 63° WSW 07:04:04 10° NNW
Cosmos 2208 Rocket 4.3 06:57:11 10° NNW 07:02:30 53° WSW 07:07:45 10° S
CZ-4 R/B 1.4 06:59:54 10° N 07:04:00 71° WNW 07:07:59 10° SSW
Cosmos 1703 3.7 07:02:00 10° NNW 07:05:43 41° W 07:09:25 10° SSW
Cosmos 1809 Rocket 4.5 07:01:58 10° SSW 07:08:07 74° W 07:14:18 10° N
